World > North America > United States > Illinois

Frederick, Illinois Regional Weather

Lat: 40.07N, Lon: 90.43W
Wx Zone: ILZ040Web Search
Frederick Weather Warning NWS WEATHER ALERT FOR THE FREDERICK, IL AREA - Issued: 1116 AM CDT Mon May 17 2021 Frederick Weather Warning  

Ads allow us to feed your daily addiction for the world's greatest weather information. We're determined to offer quality sponsors, in the least annoying way possible.

Feedback


°F Click to change Frederick hourly weather to Imperial units.Click to change Frederick hourly weather to Metric units. °C
Frederick Weather Map
UTC Time: 5/17/2021, 16:25
Your Time:

Frederick, IL Regional Weather

Expires:202105171700;;262935
ASUS43 KLOT 171609
RWRIL 

ILLINOIS REGIONAL WEATHER ROUNDUP
NATIONAL WEATHER SERVICE CHICAGO/ROMEOVILLE IL
1100 AM CDT MON MAY 17 2021

NOTE: "FAIR" INDICATES FEW OR NO CLOUDS BELOW 12,000 FEET WITH NO
SIGNIFICANT WEATHER AND/OR OBSTRUCTIONS TO VISIBILITY.

* THESE STATIONS ARE NOT UNDER NWS QUALITY CONTROL. THEY ALSO MAY NOT
  REPORT WEATHER SUCH AS PRECIPITATION OR FOG.


ILZ025>027-034>036-040-047-049-050-058-095>099-171700-
WEST-CENTRAL ILLINOIS
  
CITY           SKY/WX    TMP DP  RH WIND       PRES   REMARKS
QUINCY         LGT RAIN  62  59  90 E12       30.05S                  
GALESBURG*     LGT RAIN  57  56  97 E12       30.13R                  
MACOMB*        LGT RAIN  59  59 100 E12       30.12S                  
JACKSONVILLE*  CLOUDY    66  65  99 E14       30.07F                  
PITTSFIELD*    CLOUDY    65  65 100 E5        30.07S                  
$$


SKY/WX - Weather  TMP - Temperature  DP - Dew Point  RH - Relative Humidity
WIND - Wind Direction/Speed PRES - Barometric Pressure VSB - Visibility
WCI - Wind Chill Index E13G22 Wind - East Wind 13 mph/Gusts of 22 mph